contact:dominique.lefevre@mio.osupytheas.fr, maurice.libes@osupytheas.fr, didier.mallarino@osupytheas.fr
Project:EMSO http://www.emso-fr.org/EMSO-France
Depth: 2436.0 m
Title:EMSO Ligure Ouest : Data MII capteur MICROCAT
DateTime_Computer,Latitude,Longitude,Temperature,Conductivity,Pressure,DateTime_Instrument
DateTime_Computer,Latitude,Longitude,degC,S m-1,dbar,DateTime_Instrument
2022-08-01T00:01:39Z,42.805,6.029,13.3011,4.60052,2470.73,2022-8-01T02:03:27Z
2022-08-01T00:04:42Z,42.805,6.029,13.3011,4.60057,2470.707,2022-8-01T02:06:30Z
2022-08-01T00:07:45Z,42.805,6.029,13.3009,4.60052,2470.707,2022-8-01T02:09:33Z
2022-08-01T00:10:48Z,42.805,6.029,13.3011,4.60058,2470.684,2022-8-01T02:12:36Z
2022-08-01T00:13:51Z,42.805,6.029,13.3006,4.60050,2470.684,2022-8-01T02:15:39Z
2022-08-01T00:16:54Z,42.805,6.029,13.3010,4.60063,2470.67,2022-8-01T02:18:42Z
2022-08-01T00:19:57Z,42.805,6.029,13.3010,4.60059,2470.707,2022-8-01T02:21:45Z
2022-08-01T00:23:01Z,42.805,6.029,13.3011,4.60067,2470.67,2022-8-01T02:24:48Z
2022-08-01T00:26:04Z,42.805,6.029,13.3009,4.60055,2470.67,2022-8-01T02:27:52Z
2022-08-01T00:29:07Z,42.805,6.029,13.3008,4.60052,2470.646,2022-8-01T02:30:55Z
2022-08-01T00:32:10Z,42.805,6.029,13.3013,4.60062,2470.661,2022-8-01T02:33:58Z
2022-08-01T00:35:13Z,42.805,6.029,13.3006,4.60061,2470.693,2022-8-01T02:37:01Z
2022-08-01T00:38:16Z,42.805,6.029,13.3011,4.60060,2470.67,2022-8-01T02:40:04Z
2022-08-01T00:41:19Z,42.805,6.029,13.3006,4.60058,2470.661,2022-8-01T02:43:07Z
2022-08-01T00:44:22Z,42.805,6.029,13.3014,4.60057,2470.684,2022-8-01T02:46:10Z
2022-08-01T00:47:25Z,42.805,6.029,13.3015,4.60061,2470.67,2022-8-01T02:49:13Z
2022-08-01T00:50:29Z,42.805,6.029,13.3015,4.60066,2470.707,2022-8-01T02:52:16Z
2022-08-01T00:53:32Z,42.805,6.029,13.3014,4.60053,2470.646,2022-8-01T02:55:20Z
2022-08-01T00:56:35Z,42.805,6.029,13.3011,4.60049,2470.61,2022-8-01T02:58:23Z
2022-08-01T00:59:38Z,42.805,6.029,13.3008,4.60054,2470.67,2022-8-01T03:01:26Z
2022-08-01T01:02:41Z,42.805,6.029,13.3008,4.60056,2470.646,2022-8-01T03:04:29Z
2022-08-01T01:05:44Z,42.805,6.029,13.3011,4.60051,2470.61,2022-8-01T03:07:32Z
2022-08-01T01:08:47Z,42.805,6.029,13.3006,4.60054,2470.646,2022-8-01T03:10:35Z
2022-08-01T01:11:50Z,42.805,6.029,13.3014,4.60059,2470.624,2022-8-01T03:13:38Z
2022-08-01T01:14:53Z,42.805,6.029,13.3012,4.60059,2470.661,2022-8-01T03:16:41Z
2022-08-01T01:17:57Z,42.805,6.029,13.3009,4.60057,2470.661,2022-8-01T03:19:45Z
2022-08-01T01:21:00Z,42.805,6.029,13.3011,4.60057,2470.661,2022-8-01T03:22:48Z
2022-08-01T01:24:03Z,42.805,6.029,13.3012,4.60063,2470.661,2022-8-01T03:25:51Z
2022-08-01T01:27:06Z,42.805,6.029,13.3012,4.60066,2470.646,2022-8-01T03:28:54Z
2022-08-01T01:30:09Z,42.805,6.029,13.3015,4.60077,2470.646,2022-8-01T03:31:57Z
2022-08-01T01:33:12Z,42.805,6.029,13.3011,4.60069,2470.637,2022-8-01T03:35:00Z
2022-08-01T01:36:15Z,42.805,6.029,13.3011,4.60057,2470.624,2022-8-01T03:38:03Z
2022-08-01T01:39:18Z,42.805,6.029,13.3014,4.60059,2470.624,2022-8-01T03:41:06Z
2022-08-01T01:42:22Z,42.805,6.029,13.3006,4.60050,2470.646,2022-8-01T03:44:09Z
2022-08-01T01:45:25Z,42.805,6.029,13.3014,4.60060,2470.661,2022-8-01T03:47:13Z
2022-08-01T01:48:28Z,42.805,6.029,13.3012,4.60059,2470.6,2022-8-01T03:50:16Z
2022-08-01T01:51:31Z,42.805,6.029,13.3010,4.60054,2470.614,2022-8-01T03:53:19Z
2022-08-01T01:54:34Z,42.805,6.029,13.3017,4.60062,2470.661,2022-8-01T03:56:22Z
2022-08-01T01:57:37Z,42.805,6.029,13.3006,4.60059,2470.646,2022-8-01T03:59:25Z
2022-08-01T02:00:40Z,42.805,6.029,13.3009,4.60061,2470.646,2022-8-01T04:02:28Z
2022-08-01T02:03:43Z,42.805,6.029,13.3013,4.60058,2470.6,2022-8-01T04:05:31Z
2022-08-01T02:06:46Z,42.805,6.029,13.3012,4.60057,2470.6,2022-8-01T04:08:34Z
2022-08-01T02:09:50Z,42.805,6.029,13.3009,4.60059,2470.6,2022-8-01T04:11:37Z
2022-08-01T02:12:53Z,42.805,6.029,13.3015,4.60059,2470.624,2022-8-01T04:14:41Z
2022-08-01T02:15:56Z,42.805,6.029,13.3009,4.60052,2470.614,2022-8-01T04:17:44Z
2022-08-01T02:18:59Z,42.805,6.029,13.3010,4.60052,2470.637,2022-8-01T04:20:47Z
2022-08-01T02:22:02Z,42.805,6.029,13.3009,4.60052,2470.624,2022-8-01T04:23:50Z
2022-08-01T02:25:05Z,42.805,6.029,13.3006,4.60056,2470.6,2022-8-01T04:26:53Z
2022-08-01T02:28:08Z,42.805,6.029,13.3017,4.60067,2470.6,2022-8-01T04:29:56Z
2022-08-01T02:31:11Z,42.805,6.029,13.3005,4.60068,2470.577,2022-8-01T04:32:59Z
2022-08-01T02:34:14Z,42.805,6.029,13.3011,4.60059,2470.6,2022-8-01T04:36:02Z
2022-08-01T02:37:18Z,42.805,6.029,13.3006,4.60052,2470.591,2022-8-01T04:39:05Z
2022-08-01T02:40:21Z,42.805,6.029,13.3009,4.60062,2470.577,2022-8-01T04:42:09Z
2022-08-01T02:43:24Z,42.805,6.029,13.3011,4.60058,2470.577,2022-8-01T04:45:12Z
2022-08-01T02:46:27Z,42.805,6.029,13.3014,4.60062,2470.577,2022-8-01T04:48:15Z
2022-08-01T02:49:30Z,42.805,6.029,13.3009,4.60060,2470.6,2022-8-01T04:51:18Z
2022-08-01T02:52:33Z,42.805,6.029,13.3009,4.60062,2470.6,2022-8-01T04:54:21Z
2022-08-01T02:55:36Z,42.805,6.029,13.3014,4.60057,2470.577,2022-8-01T04:57:24Z
2022-08-01T02:58:39Z,42.805,6.029,13.3016,4.60069,2470.614,2022-8-01T05:00:27Z
2022-08-01T03:01:42Z,42.805,6.029,13.3015,4.60066,2470.577,2022-8-01T05:03:30Z
2022-08-01T03:04:46Z,42.805,6.029,13.3011,4.60061,2470.577,2022-8-01T05:06:33Z
2022-08-01T03:07:49Z,42.805,6.029,13.3009,4.60057,2470.6,2022-8-01T05:09:37Z
2022-08-01T03:10:52Z,42.805,6.029,13.3011,4.60068,2470.591,2022-8-01T05:12:40Z
2022-08-01T03:13:55Z,42.805,6.029,13.3013,4.60058,2470.577,2022-8-01T05:15:43Z
2022-08-01T03:16:58Z,42.805,6.029,13.3009,4.60062,2470.591,2022-8-01T05:18:46Z
2022-08-01T03:20:01Z,42.805,6.029,13.3014,4.60059,2470.614,2022-8-01T05:21:49Z
2022-08-01T03:23:04Z,42.805,6.029,13.3009,4.60057,2470.553,2022-8-01T05:24:52Z
2022-08-01T03:26:07Z,42.805,6.029,13.3012,4.60067,2470.563,2022-8-01T05:27:55Z
2022-08-01T03:29:11Z,42.805,6.029,13.3013,4.60069,2470.591,2022-8-01T05:30:58Z
2022-08-01T03:32:14Z,42.805,6.029,13.3014,4.60070,2470.553,2022-8-01T05:34:02Z
2022-08-01T03:35:17Z,42.805,6.029,13.3006,4.60063,2470.577,2022-8-01T05:37:05Z
2022-08-01T03:38:20Z,42.805,6.029,13.3010,4.60053,2470.624,2022-8-01T05:40:08Z
2022-08-01T03:41:23Z,42.805,6.029,13.3013,4.60061,2470.567,2022-8-01T05:43:11Z
2022-08-01T03:44:26Z,42.805,6.029,13.3011,4.60054,2470.577,2022-8-01T05:46:14Z
2022-08-01T03:47:29Z,42.805,6.029,13.3008,4.60052,2470.577,2022-8-01T05:49:17Z
2022-08-01T03:50:32Z,42.805,6.029,13.3009,4.60066,2470.6,2022-8-01T05:52:20Z
2022-08-01T03:53:35Z,42.805,6.029,13.3011,4.60058,2470.577,2022-8-01T05:55:23Z
2022-08-01T03:56:39Z,42.805,6.029,13.3009,4.60054,2470.577,2022-8-01T05:58:26Z
2022-08-01T03:59:42Z,42.805,6.029,13.3008,4.60058,2470.577,2022-8-01T06:01:30Z
2022-08-01T04:02:45Z,42.805,6.029,13.3015,4.60062,2470.577,2022-8-01T06:04:33Z
2022-08-01T04:05:48Z,42.805,6.029,13.3015,4.60063,2470.577,2022-8-01T06:07:36Z
2022-08-01T04:08:51Z,42.805,6.029,13.3012,4.60064,2470.577,2022-8-01T06:10:39Z
2022-08-01T04:11:54Z,42.805,6.029,13.3009,4.60061,2470.577,2022-8-01T06:13:42Z
2022-08-01T04:14:57Z,42.805,6.029,13.3018,4.60062,2470.591,2022-8-01T06:16:45Z
2022-08-01T04:18:00Z,42.805,6.029,13.3015,4.60064,2470.591,2022-8-01T06:19:48Z
2022-08-01T04:21:04Z,42.805,6.029,13.3012,4.60059,2470.553,2022-8-01T06:22:51Z
2022-08-01T04:24:07Z,42.805,6.029,13.3012,4.60052,2470.624,2022-8-01T06:25:55Z
2022-08-01T04:27:10Z,42.805,6.029,13.3014,4.60069,2470.567,2022-8-01T06:28:58Z
2022-08-01T04:30:13Z,42.805,6.029,13.3014,4.60070,2470.567,2022-8-01T06:32:01Z
2022-08-01T04:33:16Z,42.805,6.029,13.3011,4.60056,2470.577,2022-8-01T06:35:04Z
2022-08-01T04:36:19Z,42.805,6.029,13.3014,4.60062,2470.577,2022-8-01T06:38:07Z
2022-08-01T04:39:22Z,42.805,6.029,13.3015,4.60067,2470.553,2022-8-01T06:41:10Z
2022-08-01T04:42:25Z,42.805,6.029,13.3015,4.60062,2470.577,2022-8-01T06:44:13Z
2022-08-01T04:45:28Z,42.805,6.029,13.3015,4.60070,2470.591,2022-8-01T06:47:16Z
2022-08-01T04:48:32Z,42.805,6.029,13.3005,4.60059,2470.539,2022-8-01T06:50:19Z
2022-08-01T04:51:35Z,42.805,6.029,13.3009,4.60057,2470.591,2022-8-01T06:53:23Z
2022-08-01T04:54:38Z,42.805,6.029,13.3010,4.60058,2470.577,2022-8-01T06:56:26Z
2022-08-01T04:57:41Z,42.805,6.029,13.3011,4.60057,2470.553,2022-8-01T06:59:29Z
2022-08-01T05:00:44Z,42.805,6.029,13.3011,4.60062,2470.591,2022-8-01T07:02:32Z
2022-08-01T05:03:47Z,42.805,6.029,13.3007,4.60063,2470.553,2022-8-01T07:05:35Z
2022-08-01T05:06:50Z,42.805,6.029,13.3011,4.60058,2470.563,2022-8-01T07:08:38Z
2022-08-01T05:09:53Z,42.805,6.029,13.3005,4.60058,2470.591,2022-8-01T07:11:41Z
2022-08-01T05:12:56Z,42.805,6.029,13.3015,4.60063,2470.637,2022-8-01T07:14:44Z
2022-08-01T05:16:00Z,42.805,6.029,13.3017,4.60062,2470.6,2022-8-01T07:17:48Z
2022-08-01T05:19:03Z,42.805,6.029,13.3009,4.60064,2470.577,2022-8-01T07:20:51Z
2022-08-01T05:22:06Z,42.805,6.029,13.3019,4.60063,2470.577,2022-8-01T07:23:54Z
2022-08-01T05:25:09Z,42.805,6.029,13.3009,4.60052,2470.553,2022-8-01T07:26:57Z
2022-08-01T05:28:12Z,42.805,6.029,13.3012,4.60059,2470.591,2022-8-01T07:30:00Z
2022-08-01T05:31:15Z,42.805,6.029,13.3014,4.60067,2470.591,2022-8-01T07:33:03Z
2022-08-01T05:34:18Z,42.805,6.029,13.3011,4.60064,2470.6,2022-8-01T07:36:06Z
2022-08-01T05:37:21Z,42.805,6.029,13.3013,4.60053,2470.591,2022-8-01T07:39:09Z
2022-08-01T05:40:25Z,42.805,6.029,13.3016,4.60065,2470.553,2022-8-01T07:42:12Z
2022-08-01T05:43:28Z,42.805,6.029,13.3013,4.60072,2470.577,2022-8-01T07:45:16Z
2022-08-01T05:46:31Z,42.805,6.029,13.3022,4.60081,2470.6,2022-8-01T07:48:19Z
2022-08-01T05:49:34Z,42.805,6.029,13.3020,4.60064,2470.591,2022-8-01T07:51:22Z
2022-08-01T05:52:37Z,42.805,6.029,13.3013,4.60057,2470.6,2022-8-01T07:54:25Z
2022-08-01T05:55:40Z,42.805,6.029,13.3008,4.60057,2470.6,2022-8-01T07:57:28Z
2022-08-01T05:58:43Z,42.805,6.029,13.3012,4.60070,2470.614,2022-8-01T08:00:31Z
2022-08-01T06:01:46Z,42.805,6.029,13.3013,4.60066,2470.6,2022-8-01T08:03:34Z
2022-08-01T06:04:49Z,42.805,6.029,13.3016,4.60064,2470.624,2022-8-01T08:06:37Z
2022-08-01T06:07:53Z,42.805,6.029,13.3010,4.60057,2470.6,2022-8-01T08:09:41Z
2022-08-01T06:10:56Z,42.805,6.029,13.3014,4.60057,2470.6,2022-8-01T08:12:44Z
2022-08-01T06:13:59Z,42.805,6.029,13.3011,4.60064,2470.614,2022-8-01T08:15:47Z
2022-08-01T06:17:02Z,42.805,6.029,13.3014,4.60068,2470.637,2022-8-01T08:18:50Z
2022-08-01T06:20:05Z,42.805,6.029,13.3010,4.60059,2470.637,2022-8-01T08:21:53Z
2022-08-01T06:23:08Z,42.805,6.029,13.3009,4.60067,2470.6,2022-8-01T08:24:56Z
2022-08-01T06:26:11Z,42.805,6.029,13.3014,4.60062,2470.6,2022-8-01T08:27:59Z
2022-08-01T06:29:14Z,42.805,6.029,13.3011,4.60062,2470.591,2022-8-01T08:31:02Z
2022-08-01T06:32:18Z,42.805,6.029,13.3016,4.60068,2470.6,2022-8-01T08:34:05Z
2022-08-01T06:35:21Z,42.805,6.029,13.3009,4.60062,2470.628,2022-8-01T08:37:09Z
2022-08-01T06:38:24Z,42.805,6.029,13.3014,4.60067,2470.614,2022-8-01T08:40:12Z
2022-08-01T06:41:27Z,42.805,6.029,13.3016,4.60067,2470.624,2022-8-01T08:43:15Z
2022-08-01T06:44:30Z,42.805,6.029,13.3011,4.60068,2470.637,2022-8-01T08:46:18Z
2022-08-01T06:47:33Z,42.805,6.029,13.3011,4.60064,2470.624,2022-8-01T08:49:21Z
2022-08-01T06:50:36Z,42.805,6.029,13.3011,4.60064,2470.646,2022-8-01T08:52:24Z
2022-08-01T06:53:39Z,42.805,6.029,13.3015,4.60073,2470.6,2022-8-01T08:55:27Z
2022-08-01T06:56:42Z,42.805,6.029,13.3015,4.60076,2470.646,2022-8-01T08:58:30Z
2022-08-01T06:59:46Z,42.805,6.029,13.3015,4.60063,2470.646,2022-8-01T09:01:34Z
2022-08-01T07:02:49Z,42.805,6.029,13.3015,4.60059,2470.624,2022-8-01T09:04:37Z
2022-08-01T07:05:52Z,42.805,6.029,13.3014,4.60056,2470.67,2022-8-01T09:07:40Z
2022-08-01T07:08:55Z,42.805,6.029,13.3015,4.60062,2470.624,2022-8-01T09:10:43Z
2022-08-01T07:11:58Z,42.805,6.029,13.3012,4.60062,2470.646,2022-8-01T09:13:46Z
2022-08-01T07:15:01Z,42.805,6.029,13.3014,4.60075,2470.684,2022-8-01T09:16:49Z
2022-08-01T07:18:04Z,42.805,6.029,13.3018,4.60067,2470.633,2022-8-01T09:19:52Z
2022-08-01T07:21:07Z,42.805,6.029,13.3009,4.60068,2470.67,2022-8-01T09:22:55Z
2022-08-01T07:24:11Z,42.805,6.029,13.3011,4.60064,2470.67,2022-8-01T09:25:58Z
2022-08-01T07:27:14Z,42.805,6.029,13.3019,4.60064,2470.646,2022-8-01T09:29:02Z
2022-08-01T07:30:17Z,42.805,6.029,13.3013,4.60061,2470.646,2022-8-01T09:32:05Z
2022-08-01T07:33:20Z,42.805,6.029,13.3013,4.60058,2470.707,2022-8-01T09:35:08Z
2022-08-01T07:36:23Z,42.805,6.029,13.3011,4.60059,2470.67,2022-8-01T09:38:11Z
2022-08-01T07:39:26Z,42.805,6.029,13.3024,4.60065,2470.67,2022-8-01T09:41:14Z
2022-08-01T07:42:29Z,42.805,6.029,13.3010,4.60062,2470.646,2022-8-01T09:44:17Z
2022-08-01T07:45:32Z,42.805,6.029,13.3011,4.60057,2470.67,2022-8-01T09:47:20Z
2022-08-01T07:48:35Z,42.805,6.029,13.3014,4.60067,2470.693,2022-8-01T09:50:23Z
2022-08-01T07:51:39Z,42.805,6.029,13.3015,4.60062,2470.646,2022-8-01T09:53:27Z
2022-08-01T07:54:42Z,42.805,6.029,13.3014,4.60064,2470.67,2022-8-01T09:56:30Z
2022-08-01T07:57:45Z,42.805,6.029,13.3015,4.60067,2470.646,2022-8-01T09:59:33Z
2022-08-01T08:00:48Z,42.805,6.029,13.3014,4.60064,2470.684,2022-8-01T10:02:36Z
2022-08-01T08:03:51Z,42.805,6.029,13.3016,4.60067,2470.693,2022-8-01T10:05:39Z
2022-08-01T08:06:54Z,42.805,6.029,13.3012,4.60059,2470.707,2022-8-01T10:08:42Z
2022-08-01T08:09:57Z,42.805,6.029,13.3015,4.60069,2470.693,2022-8-01T10:11:45Z
2022-08-01T08:13:00Z,42.805,6.029,13.3015,4.60058,2470.684,2022-8-01T10:14:48Z
2022-08-01T08:16:04Z,42.805,6.029,13.3011,4.60072,2470.646,2022-8-01T10:17:51Z
2022-08-01T08:19:07Z,42.805,6.029,13.3019,4.60074,2470.693,2022-8-01T10:20:55Z
2022-08-01T08:22:10Z,42.805,6.029,13.3011,4.60060,2470.684,2022-8-01T10:23:58Z
2022-08-01T08:25:13Z,42.805,6.029,13.3007,4.60055,2470.646,2022-8-01T10:27:01Z
2022-08-01T08:28:16Z,42.805,6.029,13.3014,4.60057,2470.707,2022-8-01T10:30:04Z
2022-08-01T08:31:19Z,42.805,6.029,13.3014,4.60063,2470.67,2022-8-01T10:33:07Z
2022-08-01T08:34:22Z,42.805,6.029,13.3014,4.60064,2470.707,2022-8-01T10:36:10Z
2022-08-01T08:37:25Z,42.805,6.029,13.3014,4.60059,2470.707,2022-8-01T10:39:13Z
2022-08-01T08:40:29Z,42.805,6.029,13.3011,4.60063,2470.693,2022-8-01T10:42:16Z
2022-08-01T08:43:32Z,42.805,6.029,13.3019,4.60067,2470.67,2022-8-01T10:45:20Z
2022-08-01T08:46:35Z,42.805,6.029,13.3015,4.60057,2470.693,2022-8-01T10:48:23Z
2022-08-01T08:49:38Z,42.805,6.029,13.3013,4.60064,2470.67,2022-8-01T10:51:26Z
2022-08-01T08:52:41Z,42.805,6.029,13.3019,4.60062,2470.693,2022-8-01T10:54:29Z
2022-08-01T08:55:44Z,42.805,6.029,13.3011,4.60059,2470.693,2022-8-01T10:57:32Z
2022-08-01T08:58:47Z,42.805,6.029,13.3013,4.60067,2470.73,2022-8-01T11:00:35Z
2022-08-01T09:01:50Z,42.805,6.029,13.3013,4.60064,2470.684,2022-8-01T11:03:38Z
2022-08-01T09:04:53Z,42.805,6.029,13.3011,4.60057,2470.67,2022-8-01T11:06:41Z
2022-08-01T09:07:57Z,42.805,6.029,13.3014,4.60053,2470.707,2022-8-01T11:09:45Z
2022-08-01T09:11:00Z,42.805,6.029,13.3019,4.60058,2470.693,2022-8-01T11:12:48Z
2022-08-01T09:14:03Z,42.805,6.029,13.3010,4.60062,2470.693,2022-8-01T11:15:51Z
2022-08-01T09:17:06Z,42.805,6.029,13.3013,4.60069,2470.693,2022-8-01T11:18:54Z
2022-08-01T09:20:09Z,42.805,6.029,13.3014,4.60070,2470.646,2022-8-01T11:21:57Z
2022-08-01T09:23:12Z,42.805,6.029,13.3016,4.60064,2470.717,2022-8-01T11:25:00Z
2022-08-01T09:26:15Z,42.805,6.029,13.3010,4.60060,2470.707,2022-8-01T11:28:03Z
2022-08-01T09:29:18Z,42.805,6.029,13.3019,4.60060,2470.707,2022-8-01T11:31:06Z
2022-08-01T09:32:22Z,42.805,6.029,13.3016,4.60057,2470.67,2022-8-01T11:34:09Z
2022-08-01T09:35:25Z,42.805,6.029,13.3013,4.60070,2470.693,2022-8-01T11:37:13Z
2022-08-01T09:38:28Z,42.805,6.029,13.3008,4.60059,2470.67,2022-8-01T11:40:16Z
2022-08-01T09:41:31Z,42.805,6.029,13.3015,4.60067,2470.661,2022-8-01T11:43:19Z
2022-08-01T09:44:34Z,42.805,6.029,13.3015,4.60068,2470.707,2022-8-01T11:46:22Z
2022-08-01T09:47:37Z,42.805,6.029,13.3017,4.60068,2470.67,2022-8-01T11:49:25Z
2022-08-01T09:50:40Z,42.805,6.029,13.3015,4.60062,2470.67,2022-8-01T11:52:28Z
2022-08-01T09:53:43Z,42.805,6.029,13.3012,4.60064,2470.646,2022-8-01T11:55:31Z
2022-08-01T09:56:47Z,42.805,6.029,13.3011,4.60059,2470.684,2022-8-01T11:58:34Z
2022-08-01T09:59:50Z,42.805,6.029,13.3022,4.60077,2470.67,2022-8-01T12:01:38Z
2022-08-01T10:02:53Z,42.805,6.029,13.3014,4.60072,2470.684,2022-8-01T12:04:41Z
2022-08-01T10:05:56Z,42.805,6.029,13.3019,4.60060,2470.693,2022-8-01T12:07:44Z
2022-08-01T10:08:59Z,42.805,6.029,13.3015,4.60057,2470.67,2022-8-01T12:10:47Z
2022-08-01T10:12:02Z,42.805,6.029,13.3011,4.60057,2470.684,2022-8-01T12:13:50Z
2022-08-01T10:15:05Z,42.805,6.029,13.3014,4.60059,2470.707,2022-8-01T12:16:53Z
2022-08-01T10:18:08Z,42.805,6.029,13.3014,4.60061,2470.67,2022-8-01T12:19:56Z
2022-08-01T10:21:12Z,42.805,6.029,13.3015,4.60059,2470.67,2022-8-01T12:22:59Z
2022-08-01T10:24:15Z,42.805,6.029,13.3022,4.60068,2470.707,2022-8-01T12:26:03Z
2022-08-01T10:27:18Z,42.805,6.029,13.3010,4.60059,2470.67,2022-8-01T12:29:06Z
2022-08-01T10:30:21Z,42.805,6.029,13.3014,4.60070,2470.684,2022-8-01T12:32:09Z
2022-08-01T10:33:24Z,42.805,6.029,13.3021,4.60070,2470.646,2022-8-01T12:35:12Z
2022-08-01T10:36:27Z,42.805,6.029,13.3014,4.60062,2470.661,2022-8-01T12:38:15Z
2022-08-01T10:39:30Z,42.805,6.029,13.3010,4.60062,2470.646,2022-8-01T12:41:18Z
2022-08-01T10:42:33Z,42.805,6.029,13.3011,4.60063,2470.646,2022-8-01T12:44:21Z
2022-08-01T10:45:36Z,42.805,6.029,13.3011,4.60066,2470.646,2022-8-01T12:47:24Z
2022-08-01T10:48:40Z,42.805,6.029,13.3016,4.60062,2470.646,2022-8-01T12:50:28Z
2022-08-01T10:51:43Z,42.805,6.029,13.3014,4.60067,2470.637,2022-8-01T12:53:31Z
2022-08-01T10:54:46Z,42.805,6.029,13.3011,4.60069,2470.624,2022-8-01T12:56:34Z
2022-08-01T10:57:49Z,42.805,6.029,13.3017,4.60060,2470.646,2022-8-01T12:59:37Z
2022-08-01T11:00:52Z,42.805,6.029,13.3019,4.60064,2470.624,2022-8-01T13:02:40Z
2022-08-01T11:03:55Z,42.805,6.029,13.3015,4.60074,2470.6,2022-8-01T13:05:43Z
2022-08-01T11:06:58Z,42.805,6.029,13.3014,4.60058,2470.646,2022-8-01T13:08:46Z
2022-08-01T11:10:01Z,42.805,6.029,13.3011,4.60060,2470.646,2022-8-01T13:11:49Z
2022-08-01T11:13:05Z,42.805,6.029,13.3011,4.60078,2470.624,2022-8-01T13:14:53Z
2022-08-01T11:16:08Z,42.805,6.029,13.3016,4.60066,2470.6,2022-8-01T13:17:56Z
2022-08-01T11:19:11Z,42.805,6.029,13.3013,4.60062,2470.624,2022-8-01T13:20:59Z
2022-08-01T11:22:14Z,42.805,6.029,13.3017,4.60058,2470.637,2022-8-01T13:24:02Z
2022-08-01T11:25:17Z,42.805,6.029,13.3013,4.60057,2470.624,2022-8-01T13:27:05Z
2022-08-01T11:28:20Z,42.805,6.029,13.3014,4.60063,2470.624,2022-8-01T13:30:08Z
2022-08-01T11:31:23Z,42.805,6.029,13.3013,4.60057,2470.614,2022-8-01T13:33:11Z
2022-08-01T11:34:26Z,42.805,6.029,13.3013,4.60062,2470.637,2022-8-01T13:36:14Z
2022-08-01T11:37:30Z,42.805,6.029,13.3015,4.60064,2470.637,2022-8-01T13:39:18Z
2022-08-01T11:40:33Z,42.805,6.029,13.3011,4.60055,2470.646,2022-8-01T13:42:21Z
2022-08-01T11:43:36Z,42.805,6.029,13.3015,4.60061,2470.624,2022-8-01T13:45:24Z
2022-08-01T11:46:39Z,42.805,6.029,13.3012,4.60059,2470.6,2022-8-01T13:48:27Z
2022-08-01T11:49:42Z,42.805,6.029,13.3019,4.60067,2470.624,2022-8-01T13:51:30Z
2022-08-01T11:52:45Z,42.805,6.029,13.3011,4.60060,2470.624,2022-8-01T13:54:33Z
2022-08-01T11:55:48Z,42.805,6.029,13.3015,4.60067,2470.624,2022-8-01T13:57:36Z
2022-08-01T11:58:51Z,42.805,6.029,13.3012,4.60061,2470.6,2022-8-01T14:00:39Z
2022-08-01T12:01:55Z,42.805,6.029,13.3015,4.60063,2470.6,2022-8-01T14:03:43Z
2022-08-01T12:04:58Z,42.805,6.029,13.3014,4.60062,2470.6,2022-8-01T14:06:46Z
2022-08-01T12:08:01Z,42.805,6.029,13.3013,4.60057,2470.6,2022-8-01T14:09:49Z
2022-08-01T12:11:04Z,42.805,6.029,13.3016,4.60057,2470.614,2022-8-01T14:12:52Z
2022-08-01T12:14:07Z,42.805,6.029,13.3014,4.60063,2470.6,2022-8-01T14:15:55Z
2022-08-01T12:17:10Z,42.805,6.029,13.3012,4.60057,2470.6,2022-8-01T14:18:58Z
2022-08-01T12:20:13Z,42.805,6.029,13.3014,4.60064,2470.591,2022-8-01T14:22:01Z
2022-08-01T12:23:16Z,42.805,6.029,13.3014,4.60064,2470.614,2022-8-01T14:25:04Z
2022-08-01T12:26:19Z,42.805,6.029,13.3014,4.60064,2470.6,2022-8-01T14:28:07Z
2022-08-01T12:29:23Z,42.805,6.029,13.3013,4.60056,2470.577,2022-8-01T14:31:11Z
2022-08-01T12:32:26Z,42.805,6.029,13.3015,4.60056,2470.624,2022-8-01T14:34:14Z
2022-08-01T12:35:29Z,42.805,6.029,13.3014,4.60058,2470.614,2022-8-01T14:37:17Z
2022-08-01T12:38:32Z,42.805,6.029,13.3015,4.60062,2470.591,2022-8-01T14:40:20Z
2022-08-01T12:41:35Z,42.805,6.029,13.3011,4.60057,2470.553,2022-8-01T14:43:23Z
2022-08-01T12:44:38Z,42.805,6.029,13.3013,4.60062,2470.624,2022-8-01T14:46:26Z
2022-08-01T12:47:41Z,42.805,6.029,13.3016,4.60069,2470.614,2022-8-01T14:49:29Z
2022-08-01T12:50:45Z,42.805,6.029,13.3014,4.60058,2470.577,2022-8-01T14:52:32Z
2022-08-01T12:53:48Z,42.805,6.029,13.3013,4.60063,2470.591,2022-8-01T14:55:36Z
2022-08-01T12:56:51Z,42.805,6.029,13.3011,4.60058,2470.6,2022-8-01T14:58:39Z
2022-08-01T12:59:54Z,42.805,6.029,13.3015,4.60057,2470.577,2022-8-01T15:01:42Z
2022-08-01T13:02:57Z,42.805,6.029,13.3015,4.60057,2470.553,2022-8-01T15:04:45Z
2022-08-01T13:06:00Z,42.805,6.029,13.3006,4.60057,2470.577,2022-8-01T15:07:48Z
2022-08-01T13:09:03Z,42.805,6.029,13.3017,4.60062,2470.6,2022-8-01T15:10:51Z
2022-08-01T13:12:06Z,42.805,6.029,13.3011,4.60057,2470.553,2022-8-01T15:13:54Z
2022-08-01T13:15:09Z,42.805,6.029,13.3011,4.60058,2470.577,2022-8-01T15:16:57Z
2022-08-01T13:18:13Z,42.805,6.029,13.3014,4.60057,2470.567,2022-8-01T15:20:01Z
2022-08-01T13:21:16Z,42.805,6.029,13.3013,4.60055,2470.6,2022-8-01T15:23:04Z
2022-08-01T13:24:19Z,42.805,6.029,13.3013,4.60059,2470.553,2022-8-01T15:26:07Z
2022-08-01T13:27:22Z,42.805,6.029,13.3014,4.60065,2470.577,2022-8-01T15:29:10Z
2022-08-01T13:30:25Z,42.805,6.029,13.3012,4.60058,2470.577,2022-8-01T15:32:13Z
2022-08-01T13:33:28Z,42.805,6.029,13.3015,4.60056,2470.553,2022-8-01T15:35:16Z
2022-08-01T13:36:31Z,42.805,6.029,13.3011,4.60059,2470.553,2022-8-01T15:38:19Z
2022-08-01T13:39:34Z,42.805,6.029,13.3012,4.60055,2470.553,2022-8-01T15:41:22Z
2022-08-01T13:42:38Z,42.805,6.029,13.3011,4.60059,2470.553,2022-8-01T15:44:26Z
2022-08-01T13:45:41Z,42.805,6.029,13.3010,4.60058,2470.6,2022-8-01T15:47:29Z
2022-08-01T13:48:44Z,42.805,6.029,13.3016,4.60065,2470.577,2022-8-01T15:50:32Z
2022-08-01T13:51:47Z,42.805,6.029,13.3010,4.60062,2470.577,2022-8-01T15:53:35Z
2022-08-01T13:54:50Z,42.805,6.029,13.3022,4.60062,2470.577,2022-8-01T15:56:38Z
2022-08-01T13:57:53Z,42.805,6.029,13.3011,4.60059,2470.553,2022-8-01T15:59:41Z
2022-08-01T14:00:56Z,42.805,6.029,13.3014,4.60058,2470.591,2022-8-01T16:02:44Z
2022-08-01T14:03:59Z,42.805,6.029,13.3014,4.60063,2470.544,2022-8-01T16:05:47Z
2022-08-01T14:07:03Z,42.805,6.029,13.3010,4.60054,2470.507,2022-8-01T16:08:50Z
2022-08-01T14:10:06Z,42.805,6.029,13.3018,4.60055,2470.53,2022-8-01T16:11:54Z
2022-08-01T14:13:09Z,42.805,6.029,13.3005,4.60052,2470.567,2022-8-01T16:14:57Z
2022-08-01T14:16:12Z,42.805,6.029,13.3011,4.60053,2470.553,2022-8-01T16:18:00Z
2022-08-01T14:19:15Z,42.805,6.029,13.3014,4.60063,2470.544,2022-8-01T16:21:03Z
2022-08-01T14:22:18Z,42.805,6.029,13.3009,4.60059,2470.53,2022-8-01T16:24:06Z
2022-08-01T14:25:21Z,42.805,6.029,13.3013,4.60053,2470.544,2022-8-01T16:27:09Z
2022-08-01T14:28:24Z,42.805,6.029,13.3015,4.60062,2470.553,2022-8-01T16:30:12Z
2022-08-01T14:31:28Z,42.805,6.029,13.3015,4.60057,2470.53,2022-8-01T16:33:15Z
2022-08-01T14:34:31Z,42.805,6.029,13.3014,4.60060,2470.544,2022-8-01T16:36:19Z
2022-08-01T14:37:34Z,42.805,6.029,13.3011,4.60063,2470.544,2022-8-01T16:39:22Z
2022-08-01T14:40:37Z,42.805,6.029,13.3017,4.60072,2470.544,2022-8-01T16:42:25Z
2022-08-01T14:43:40Z,42.805,6.029,13.3015,4.60069,2470.544,2022-8-01T16:45:28Z
2022-08-01T14:46:43Z,42.805,6.029,13.3015,4.60061,2470.567,2022-8-01T16:48:31Z
2022-08-01T14:49:46Z,42.805,6.029,13.3014,4.60063,2470.553,2022-8-01T16:51:34Z
2022-08-01T14:52:49Z,42.805,6.029,13.3015,4.60061,2470.53,2022-8-01T16:54:37Z
2022-08-01T14:55:52Z,42.805,6.029,13.3014,4.60057,2470.544,2022-8-01T16:57:40Z
2022-08-01T14:58:56Z,42.805,6.029,13.3011,4.60059,2470.52,2022-8-01T17:00:44Z
2022-08-01T15:01:59Z,42.805,6.029,13.3015,4.60064,2470.544,2022-8-01T17:03:47Z
2022-08-01T15:05:02Z,42.805,6.029,13.3016,4.60069,2470.53,2022-8-01T17:06:50Z
2022-08-01T15:08:05Z,42.805,6.029,13.3014,4.60063,2470.516,2022-8-01T17:09:53Z
2022-08-01T15:11:08Z,42.805,6.029,13.3016,4.60062,2470.553,2022-8-01T17:12:56Z
2022-08-01T15:14:11Z,42.805,6.029,13.3007,4.60050,2470.539,2022-8-01T17:15:59Z